Wind_Speed
23 23 23 23 23 24 24 25 25 25 26 26 26 27 28 29 30 31 31 31 32 32 32 32 33 34 35 35 36 38 39 39 39 39 39 41 42 42
23 24 24 24 24 24 24 25 25 25 25 26 26 27 28 29 30 30 31 30 31 31 32 31 32 34 34 35 35 36 37 36 37 39 40 40 41 42
24 24 24 25 25 25 25 26 27 27 26 25 26 27 27 28 28 29 29 29 30 31 31 31 31 33 33 34 33 34 35 36 36 37 38 39 40 41
25 25 25 26 26 26 27 27 28 27 27 26 26 26 27 27 28 29 29 28 29 30 31 31 31 31 32 33 33 34 35 36 37 37 37 37 39 40
26 26 27 27 27 27 27 27 27 28 27 27 26 27 27 28 28 28 28 29 29 30 31 31 31 31 32 32 33 34 35 37 38 38 37 37 38 39
25 26 26 27 27 27 27 27 27 27 27 26 26 26 27 27 28 28 28 29 30 30 31 31 31 32 32 33 33 33 34 35 36 37 37 38 38 38
25 25 26 26 26 26 27 27 26 26 26 25 25 25 25 26 27 27 28 28 28 29 29 30 30 31 32 33 33 33 33 33 34 35 36 37 38 38
24 25 26 26 26 27 26 26 25 25 25 25 25 25 25 26 27 27 27 27 27 27 28 28 29 29 30 31 32 32 32 33 34 35 35 35 36 38
24 24 25 26 26 26 25 25 25 25 25 25 24 25 25 26 26 26 26 26 26 26 27 27 28 28 29 30 30 31 32 32 32 33 34 34 35 36
24 24 25 26 25 25 24 25 25 25 25 24 25 25 24 25 25 25 25 26 26 26 26 26 26 27 28 29 30 30 30 31 31 31 32 33 34 35
24 25 25 25 25 25 24 24 23 23 23 23 24 24 24 24 24 24 24 25 25 26 26 26 25 26 26 27 28 29 29 29 30 31 31 32 32 33
25 25 25 25 25 24 24 23 23 22 22 23 24 24 23 23 23 23 24 24 24 24 25 25 25 24 24 25 26 27 28 29 29 29 30 31 31 32
25 25 25 25 24 24 24 23 23 22 22 22 22 23 23 23 23 23 23 23 23 24 25 25 24 24 24 25 26 26 27 27 27 27 28 29 30 31
24 25 24 24 24 23 23 23 23 23 22 23 23 23 23 22 22 22 22 23 23 23 23 22 22 23 23 24 24 24 25 25 25 25 26 27 29 30
24 24 24 24 23 23 23 23 23 22 23 23 22 22 21 21 21 21 21 21 20 19 20 20 20 21 21 22 22 22 23 23 24 24 25 26 27 29
25 24 24 23 23 23 23 23 22 22 22 22 21 21 20 19 18 18 18 19 19 19 19 19 19 19 19 19 19 20 21 22 23 23 24 25 25 27
25 24 23 23 23 23 23 23 22 22 21 21 20 19 18 18 18 18 18 18 18 18 18 18 18 19 18 18 18 18 20 21 22 22 22 23 23 24
24 23 23 23 24 24 24 23 22 22 21 19 19 19 19 18 18 18 18 18 18 18 18 18 18 19 19 18 18 18 18 19 21 21 21 22 22 22
24 24 24 24 24 24 23 23 22 22 21 20 19 19 19 19 18 18 18 18 18 18 18 18 18 18 19 19 19 19 19 20 20 21 22 22 22 22
25 24 24 24 24 24 24 23 22 21 20 20 20 20 20 19 19 18 18 18 18 18 17 17 17 17 17 18 18 19 19 19 19 19 20 21 22 22
24 24 24 24 24 25 24 24 23 22 21 21 20 20 21 20 19 18 18 18 18 18 17 17 17 16 17 17 17 18 18 18 18 18 19 19 19 20
24 24 24 24 25 25 25 24 23 23 22 22 21 21 20 20 19 18 18 18 17 16 16 16 16 16 16 16 16 17 17 17 17 17 18 18 18 18
24 24 25 25 25 25 25 25 25 23 22 22 21 20 19 19 18 17 17 17 16 16 15 15 16 15 15 15 15 15 16 16 16 16 16 17 17 17
Wind_Direction
299 298 297 295 293 291 289 288 287 285 284 284 281 278 276 273 270 267 266 267 266 265 265 264 262 259 259 258 256 255 254 254 252 251 251 250 249 249
300 298 296 295 294 292 290 289 287 285 283 282 280 280 278 276 273 269 267 266 265 264 265 265 263 261 260 259 257 256 254 253 251 251 251 251 250 249
301 299 298 298 295 294 292 291 288 287 285 283 282 282 281 278 276 273 270 267 266 265 265 264 265 264 262 259 258 256 255 253 252 251 251 251 251 250
302 300 298 298 296 295 294 292 290 288 287 285 283 282 281 280 278 275 272 269 268 266 266 265 266 265 262 261 259 256 255 254 253 252 251 251 250 249
302 301 300 298 297 295 295 293 290 288 287 285 283 282 282 281 279 276 272 270 269 269 267 267 266 264 262 261 259 256 255 255 254 253 253 252 251 249
304 304 303 302 300 297 296 294 292 289 288 286 285 283 282 282 280 276 273 273 272 270 269 268 267 264 262 260 259 258 257 256 254 254 253 253 252 251
306 306 305 304 303 301 299 297 294 291 289 289 288 286 285 283 281 278 275 274 273 272 271 270 268 265 263 260 260 261 259 257 256 255 255 254 253 253
308 307 306 305 303 302 302 300 298 295 294 293 291 289 287 285 282 279 278 275 274 272 271 271 270 268 264 260 259 260 259 258 258 257 256 255 254 253
311 309 308 308 306 305 303 301 299 296 294 294 294 292 289 286 283 280 278 276 275 273 273 272 272 270 266 263 261 259 260 260 260 259 256 255 254 253
315 314 313 311 310 307 305 303 301 299 298 296 296 295 293 290 286 283 280 277 277 276 275 274 272 271 269 265 262 261 260 258 258 257 255 254 253 252
318 316 315 314 312 310 307 305 303 301 301 299 298 295 293 292 288 286 284 281 278 276 275 274 273 272 270 270 267 264 262 261 260 258 257 255 254 253
320 319 317 316 315 313 311 310 307 304 302 301 299 298 297 294 291 288 286 284 280 275 273 273 272 271 269 270 269 268 265 263 262 260 259 259 256 254
322 321 320 318 316 314 312 311 310 309 305 304 303 300 297 295 293 291 289 286 283 278 274 273 274 274 273 270 270 269 267 266 264 261 260 260 258 256
324 323 322 321 319 317 316 314 311 311 310 307 305 303 299 296 294 291 289 288 286 282 279 279 276 275 275 274 272 270 268 264 262 262 262 261 258 257
328 327 326 324 322 321 319 318 316 313 312 311 309 306 302 300 296 293 293 292 291 288 283 282 278 276 276 275 271 268 267 265 264 265 264 262 260 258
330 330 330 328 327 325 323 321 319 317 315 314 313 310 307 304 300 297 295 294 293 291 287 286 281 277 277 276 273 270 268 265 264 265 265 264 262 260
333 333 332 330 329 328 327 325 323 320 319 318 316 314 312 308 304 301 298 296 294 292 290 288 285 280 278 281 280 277 272 268 267 266 265 263 262 261
336 336 335 333 332 331 330 330 329 327 324 322 319 318 316 312 308 305 303 300 296 293 290 288 287 283 281 281 280 279 278 273 271 269 267 266 264 263
338 338 337 336 335 334 333 333 331 330 328 326 323 320 318 316 313 309 305 302 298 295 292 289 287 285 283 282 281 279 279 277 274 271 269 267 266 266
337 337 337 337 337 337 336 335 333 331 328 326 325 322 320 317 314 310 306 304 301 298 296 292 290 288 288 285 282 280 278 277 275 273 271 268 266 265
338 338 338 339 339 339 338 337 334 330 328 326 324 322 320 317 315 311 308 306 303 302 299 294 291 289 288 286 284 281 278 276 275 274 273 271 268 266
340 339 340 340 340 340 339 337 335 332 330 329 326 323 322 320 317 313 311 309 307 305 303 298 294 291 290 287 285 282 280 278 276 274 273 272 270 269
340 340 340 340 341 341 339 337 335 333 332 332 331 328 327 325 322 318 315 313 310 307 305 302 299 295 295 291 286 284 283 281 278 275 274 273 272 271
Height
5731 5729 5727 5724 5722 5720 5718 5717 5715 5714 5713 5711 5709 5707 5706 5705 5705 5705 5705 5705 5706 5706 5706 5707 5707 5708 5709 5710 5712 5714 5716 5717 5719 5722 5724 5727 5729 5732
5725 5723 5720 5718 5715 5713 5711 5709 5707 5706 5704 5703 5701 5699 5698 5697 5696 5696 5696 5696 5696 5697 5697 5697 5698 5698 5699 5700 5701 5703 5704 5706 5708 5710 5712 5715 5718 5720
5718 5716 5714 5711 5708 5706 5704 5701 5699 5698 5696 5695 5693 5691 5689 5688 5687 5687 5687 5687 5687 5688 5688 5688 5688 5688 5689 5690 5691 5692 5694 5695 5697 5699 5701 5704 5706 5709
5712 5709 5707 5704 5701 5699 5696 5694 5692 5689 5688 5687 5685 5683 5682 5680 5679 5679 5678 5678 5678 5678 5678 5678 5679 5679 5679 5680 5680 5682 5683 5685 5686 5688 5690 5693 5695 5697
5706 5703 5700 5697 5694 5691 5688 5686 5684 5681 5679 5678 5677 5675 5673 5672 5671 5670 5670 5669 5669 5669 5669 5669 5669 5669 5669 5670 5670 5672 5673 5675 5676 5678 5679 5681 5684 5686
5699 5696 5693 5689 5686 5683 5681 5678 5676 5673 5672 5670 5668 5667 5665 5664 5663 5662 5661 5661 5660 5660 5659 5659 5660 5660 5660 5660 5661 5662 5663 5664 5665 5667 5669 5671 5673 5676
5693 5689 5686 5683 5679 5676 5673 5670 5668 5666 5664 5662 5660 5658 5657 5656 5654 5653 5653 5652 5651 5651 5650 5650 5650 5650 5650 5651 5652 5652 5653 5654 5655 5657 5659 5661 5663 5665
5686 5683 5680 5676 5673 5670 5666 5663 5661 5658 5656 5654 5653 5651 5649 5648 5646 5645 5644 5643 5643 5643 5642 5641 5641 5641 5641 5641 5642 5643 5643 5645 5646 5647 5649 5651 5653 5655
5681 5677 5674 5670 5666 5663 5660 5657 5654 5651 5649 5647 5645 5643 5641 5640 5638 5637 5635 5635 5634 5633 5633 5633 5632 5632 5632 5632 5632 5633 5634 5635 5636 5638 5639 5641 5643 5645
5675 5672 5668 5664 5660 5657 5653 5650 5647 5644 5642 5640 5637 5635 5633 5632 5630 5629 5627 5626 5626 5625 5624 5624 5624 5624 5623 5623 5624 5624 5625 5626 5627 5628 5629 5631 5633 5634
5670 5666 5662 5658 5654 5650 5647 5644 5641 5638 5635 5632 5630 5627 5625 5623 5622 5620 5619 5618 5618 5617 5616 5616 5616 5615 5615 5615 5615 5615 5616 5617 5618 5619 5620 5621 5623 5624
5665 5660 5656 5652 5648 5644 5640 5637 5634 5631 5628 5626 5623 5620 5618 5616 5614 5612 5611 5610 5609 5609 5608 5608 5607 5607 5607 5607 5607 5607 5607 5608 5609 5610 5611 5612 5613 5615
5659 5655 5650 5646 5642 5637 5634 5630 5627 5624 5621 5619 5616 5614 5611 5609 5607 5605 5604 5602 5601 5600 5600 5599 5599 5599 5599 5599 5599 5598 5598 5599 5600 5601 5602 5603 5604 5606
5654 5649 5645 5641 5636 5632 5628 5624 5621 5618 5615 5612 5609 5606 5604 5602 5600 5598 5597 5595 5594 5593 5592 5591 5591 5591 5591 5591 5591 5591 5590 5590 5591 5592 5593 5594 5595 5596
5649 5644 5640 5635 5631 5627 5623 5619 5615 5612 5609 5606 5603 5600 5598 5595 5593 5591 5590 5588 5587 5585 5585 5584 5583 5583 5583 5583 5583 5583 5583 5583 5583 5584 5584 5585 5586 5587
5645 5640 5635 5631 5626 5622 5618 5614 5611 5607 5603 5600 5597 5594 5591 5589 5587 5585 5584 5582 5581 5579 5578 5577 5576 5576 5576 5575 5575 5575 5575 5575 5575 5576 5576 5577 5577 5578
5640 5636 5631 5627 5622 5618 5614 5610 5605 5602 5598 5595 5591 5589 5586 5583 5581 5579 5578 5576 5575 5573 5572 5571 5570 5569 5569 5569 5568 5568 5568 5568 5568 5568 5569 5569 5570 5570
5637 5632 5627 5622 5618 5614 5609 5605 5601 5597 5593 5590 5587 5584 5581 5578 5576 5574 5572 5570 5569 5567 5566 5565 5563 5563 5562 5562 5562 5561 5561 5561 5561 5561 5561 5562 5562 5563
5634 5629 5624 5619 5614 5610 5605 5601 5597 5593 5589 5585 5582 5579 5576 5573 5571 5568 5566 5564 5562 5561 5559 5558 5557 5557 5556 5556 5556 5555 5555 5554 5554 5554 5554 5555 5555 5556
5631 5626 5621 5616 5611 5606 5601 5597 5592 5588 5585 5581 5578 5574 5571 5568 5565 5563 5561 5559 5557 5555 5553 5552 5551 5550 5550 5550 5549 5549 5548 5548 5548 5547 5547 5548 5548 5549
5627 5622 5617 5612 5607 5603 5598 5593 5588 5584 5580 5576 5573 5569 5566 5563 5560 5557 5555 5553 5551 5549 5548 5546 5545 5544 5543 5543 5543 5543 5542 5542 5541 5541 5541 5541 5541 5542
5624 5619 5615 5610 5604 5599 5594 5589 5584 5579 5575 5571 5567 5564 5560 5557 5554 5552 5549 5547 5546 5544 5542 5541 5539 5539 5538 5537 5537 5536 5536 5535 5535 5534 5534 5535 5535 5535
5622 5617 5612 5607 5601 5596 5591 5586 5580 5575 5571 5567 5563 5559 5556 5552 5549 5547 5544 5542 5540 5539 5537 5536 5535 5533 5532 5531 5531 5530 5530 5529 5529 5529 5529 5528 5529 5529